Regional Weather Roundup
Issued by NWS

Home | Current Version | Previous Version | Graphics & Text | Print | Product List | Glossary On
Versions: 1 2 3 4 5 6 7 8 9 10 11 12 13 14 15 16 17 18 19 20 21 22 23 24 25 26 27 28 29 30 31 32 33 34 35 36 37 38 39 40 41 42 43 44 45 46 47 48 49 50
000
ASUS45 KABQ 301201
RWRNM
NEW MEXICO REGIONAL WEATHER ROUNDUP
NATIONAL WEATHER SERVICE ALBUQUERQUE NM
600 AM MDT THU MAR 30 2017

NOTE: "FAIR" MEANS FEW OR NO CLOUDS BELOW 12,000 FEET AGL WITH NO
       SIGNIFICANT WEATHER OR OBSTRUCTIONS TO VISION.

      THIS PRODUCT IS RELEASED AS TWO VERSIONS.  ONE VERSION NEAR
      THE TOP OF THE HOUR CONTAINING PRELIMINARY DATA FROM ALBUQUERQUE
      AND OTHER STATIONS.  A FINAL VERSION WITH ADDITIONAL DATA IS
      ISSUED ABOUT 10 MINUTES AFTER THE HOUR.

NMZ501-503-504-510>518-301300-
NORTHWEST PLATEAU/NORTHCENTRAL MOUNTAINS

CITY           SKY/WX    TMP DP  RH WIND       PRES   REMARKS
FARMINGTON     FAIR      33  21  61 E7        29.98F WCI  27
6HR MIN TEMP:  30; 6HR MAX TEMP:  46;

LOS ALAMOS     FAIR      36  32  86 N3        30.02F
SANTA FE       FAIR      30  30 100 N6        29.99F WCI  24
6HR MIN TEMP:  30; 6HR MAX TEMP:  40;

TAOS             N/A     27  18  69 NE3       30.02S

$$
NMZ402-403-502-505>509-301300-
WESTCENTRAL MOUNTAINS/SOUTHWEST MOUNTAINS

CITY           SKY/WX    TMP DP  RH WIND       PRES   REMARKS
GALLUP         FAIR      25  19  78 CALM      30.07F
6HR MIN TEMP:  21; 6HR MAX TEMP:  37;

GRANTS         FAIR      23  21  91 W3        30.07F
SILVER CITY    FAIR      33  28  80 NW9       30.06S WCI  26

$$
NMZ407-409-411-412-301300-
SOUTHERN DESERTS

CITY           SKY/WX    TMP DP  RH WIND       PRES   REMARKS
DEMING         FAIR      37  31  78 W8        30.04F WCI  31
6HR MIN TEMP:  36; 6HR MAX TEMP:  48;

LAS CRUCES     FAIR      37  33  85 CALM      30.04S
HOLLOMAN AFB   FAIR      40  37  91 CALM      30.05F
ALAMOGORDO       N/A    N/A N/A N/A MISG        N/A
T OR C         FAIR      39  31  72 W7        30.02F WCI  34
6HR MIN TEMP:  38; 6HR MAX TEMP:  48;


$$
NMZ519>523-301300-
CENTRAL VALLEYS/CENTRAL HIGHLANDS

CITY           SKY/WX    TMP DP  RH WIND       PRES   REMARKS
ALBUQUERQUE    FAIR      38  36  92 E6        30.02F WCI  33
6HR MIN TEMP:  38; 6HR MAX TEMP:  49;

DOUBLE EAGLE   CLEAR     32  32 100 NW6       30.03  WCI  26
MORIARTY ARPT  FAIR      30  29  96 CALM      30.01S
6HR MIN TEMP:  27; 6HR MAX TEMP:  39;

CLINES CORNERS FAIR      35  29  78 W21       29.99  WCI  24
6HR MIN TEMP:  34; 6HR MAX TEMP:  37;

BELEN          FAIR      38  33  83 CALM      30.01F
6HR MIN TEMP:  38; 6HR MAX TEMP:  46;

SOCORRO        FAIR      37  36  94 S6        30.01F WCI  33
6HR MIN TEMP:  36; 6HR MAX TEMP:  44;


$$
NMZ524>526-539-540-301300-
SOUTHCENTRAL MOUNTAINS

CITY           SKY/WX    TMP DP  RH WIND       PRES   REMARKS
RUIDOSO        NOT AVBL

$$
NMZ527>531-301300-
NORTHEAST HIGHLANDS/NORTHEAST PLAINS

CITY           SKY/WX    TMP DP  RH WIND       PRES   REMARKS
LAS VEGAS      FAIR      27  22  81 SW6       29.92F WCI  20
6HR MIN TEMP:  26; 6HR MAX TEMP:  35;

RATON          FAIR      26  23  88 E7        29.88F WCI  18
6HR MIN TEMP:  25; 6HR MAX TEMP:  34;

CLAYTON        FAIR      40  34  79 W9        29.84F WCI  34
6HR MIN TEMP:  34; 6HR MAX TEMP:  41;


$$
NMZ532>537-301300-
EASTCENTRAL PLAINS

CITY           SKY/WX    TMP DP  RH WIND       PRES   REMARKS
TUCUMCARI      FAIR      40  36  86 SW8       29.84F WCI  34
6HR MIN TEMP:  37; 6HR MAX TEMP:  43;

CANNON AFB     FAIR      39  39 100 W8        29.89F WCI  33
6HR MIN TEMP:  39; 6HR MAX TEMP:  43;

CLOVIS AIRPORT FAIR      39  34  81 W13       29.88F WCI  32

$$
NMZ028-029-538-301300-
SOUTHEAST PLAINS

CITY           SKY/WX    TMP DP  RH WIND       PRES   REMARKS
ROSWELL        FAIR      36  33  89 S3        29.95
6HR MIN TEMP:  36; 6HR MAX TEMP:  44;

ARTESIA        FAIR      39  36  87 SW5       29.95S
CARLSBAD       FAIR      34  28  79 CALM      29.94F
6HR MIN TEMP:  33; 6HR MAX TEMP:  47;

HOBBS          CLEAR     36  32  87 SW6       29.96  WCI  31


$$



USA.gov is the U.S. government's official web portal to all federal, state and local government web resources and services.